Location: Constantia
(34.0183°S, 18.4411°E)
Time: 00:19:27
(UTC+00:00)

USA 238 - Pass Details

Date: 17 February 2020
Orbit: 1017 x 1195 km, 63.4° (Epoch: 05 April)

Event Time Altitude Azimuth Distance (km) Brightness Sun altitude
Exits shadow 01:04:03 71° 158° (SSE) 1,239 4.0 -35.2°
Drops below altitude 10° 01:10:30 10° 150° (SSE) 3,062 6.9 -34.4°
Sets 01:13:11 0° 149° (SSE) 4,003 7.7 -34.0°
